Weather History for Salisbury, MD

Change the Weather History Date:

Saturday, May 25, 2013

  Actual Average Record
Temperature  
Mean Temperature 58 °F 65 °F  
Max Temperature 67 °F 76 °F 92 °F (1995)
Min Temperature 49 °F 54 °F 37 °F (1956)
Degree Days  
Heating Degree Days 7 3  
Month to date heating degree days 105 127  
Since 1 July heating degree days 3853 4407  
Cooling Degree Days 0 3  
Month to date cooling degree days 94 44  
Year to date cooling degree days 140 61  
Growing Degree Days 8 (Base 50)    
Moisture  
Dew Point 36 °F    
Average Humidity 44    
Maximum Humidity 59    
Minimum Humidity 29    
Precipitation  
Precipitation 0.00 in 0.13 in 2.57 in (1995)
Month to date precipitation 3.32 2.86  
Year to date precipitation 18.65 17.79  
Snow  
Snow 0.00 in 0.00 in 0.00 in (2002)
Month to date snowfall 0.0 0.0  
Since 1 July snowfall 2.8 9.3  
Snow Depth 0.00 in    
Sea Level Pressure  
Sea Level Pressure 30.09 in    
Wind  
Wind Speed 12 mph (WNW)    
Max Wind Speed 24 mph    
Max Gust Speed 32 mph    
Visibility 10 miles    
Events      
T = Trace of Precipitation, MM = Missing Value Source: NWS Daily Summary

Daily Weather History Graph

Daily Weather History Graph

Search for Another Location

Airport:

Trip Planner

Search our weather history database for the weather conditions in past years. The results will help you decide how hot, cold, wet, or windy it might be!

Date:

Astronomy

May. 25, 2013 Rise Set
Actual Time 5:43 AM EDT 8:14 PM EDT
Civil Twilight 5:12 AM EDT 8:45 PM EDT
Nautical Twilight 4:35 AM EDT 9:23 PM EDT
Astronomical Twilight 3:52 AM EDT 10:05 PM EDT
Moon 9:00 PM EDT (5/25) 6:07 AM EDT (5/25)
Length of Visible Light 15h 32m
Length of Day
14h 31m
Full, 100% of the Moon is Illuminated
May 25
Full
May 31
Last Quarter
Jun 8
New
Jun 16
First Quarter
Jun 23
Full

Hourly Weather History & Observations

Time (EDT) Temp. Dew Point Humidity Pressure Visibility Wind Dir Wind Speed Gust Speed Precip Events Conditions
12:54 AM 53.1 °F 37.0 °F 55% 30.08 in 10.0 mi NNW 17.3 mph 31.1 mph N/A   Overcast
1:54 AM 51.1 °F 36.0 °F 56% 30.07 in 10.0 mi NNW 15.0 mph 24.2 mph N/A   Overcast
2:54 AM 51.1 °F 36.0 °F 56% 30.07 in 10.0 mi WNW 6.9 mph - N/A   Scattered Clouds
3:54 AM 51.1 °F 36.0 °F 56% 30.06 in 10.0 mi West 10.4 mph - N/A   Overcast
4:54 AM 51.1 °F 34.0 °F 52% 30.07 in 10.0 mi West 13.8 mph 19.6 mph N/A   Mostly Cloudy
5:54 AM 50.0 °F 34.0 °F 54% 30.09 in 10.0 mi WNW 10.4 mph - N/A   Clear
6:54 AM 51.1 °F 35.1 °F 54% 30.10 in 10.0 mi WNW 10.4 mph 20.7 mph N/A   Clear
7:54 AM 53.1 °F 36.0 °F 52% 30.10 in 10.0 mi WNW 13.8 mph 25.3 mph N/A   Clear
8:54 AM 55.0 °F 36.0 °F 49% 30.12 in 10.0 mi WNW 13.8 mph 26.5 mph N/A   Clear
9:54 AM 57.0 °F 37.0 °F 47% 30.11 in 10.0 mi WNW 12.7 mph 29.9 mph N/A   Clear
10:54 AM 59.0 °F 36.0 °F 42% 30.09 in 10.0 mi WNW 16.1 mph 25.3 mph N/A   Clear
11:54 AM 60.1 °F 36.0 °F 41% 30.09 in 10.0 mi NW 18.4 mph 31.1 mph N/A   Clear
12:54 PM 62.1 °F 36.0 °F 38% 30.08 in 10.0 mi West 17.3 mph 27.6 mph N/A   Clear
1:54 PM 64.0 °F 36.0 °F 35% 30.07 in 10.0 mi NW 18.4 mph 29.9 mph N/A   Clear
2:54 PM 63.0 °F 36.0 °F 37% 30.08 in 10.0 mi WNW 17.3 mph 27.6 mph N/A   Mostly Cloudy
3:54 PM 66.0 °F 37.0 °F 34% 30.07 in 10.0 mi WNW 13.8 mph 24.2 mph N/A   Mostly Cloudy
4:54 PM 64.0 °F 35.1 °F 34% 30.06 in 10.0 mi WNW 15.0 mph 27.6 mph N/A   Mostly Cloudy
5:54 PM 66.0 °F 34.0 °F 30% 30.06 in 10.0 mi West 15.0 mph 24.2 mph N/A   Mostly Cloudy
6:54 PM 64.9 °F 33.1 °F 31% 30.07 in 10.0 mi NW 12.7 mph 24.2 mph N/A   Clear
7:54 PM 63.0 °F 34.0 °F 34% 30.09 in 10.0 mi WNW 6.9 mph - N/A   Clear
8:54 PM 57.9 °F 37.9 °F 47% 30.09 in 10.0 mi WSW 5.8 mph - N/A   Clear
9:54 PM 53.1 °F 39.0 °F 59% 30.10 in 10.0 mi SW 5.8 mph - N/A   Clear
10:54 PM 55.9 °F 39.0 °F 53% 30.11 in 10.0 mi WSW 6.9 mph - N/A   Clear
11:54 PM 55.9 °F 39.0 °F 53% 30.12 in 10.0 mi West 6.9 mph - N/A   Clear